WA4A

Lookups:   1037
| Bureau | Direct | LoTW | eQSL

      Managed by WA4A
Name:Bob
QTH:Burlington, NC
Country:United States
Grid:FM06
 
Email: wa4a.mobile@gmail.com
Robert W. Truitt, Jr.
1910 Keogh Sreet
Burlington, NC 27215
United States
 
Licensed since:Hidden
Born:Hidden
ITU: 8
CQ:5
State:NC
County:Alamance
 
  
   
QSL via: Direct or via WA4 bureau


As a teenager, I was fascinated with QRP (5-Watts or less) amateur radio portable and mobile operating and built several interesting rigs that ran from 100-mW to 5-Watts output. Now, after almost 60 years on-the-air, and having retired from a successful career in telecommunications, my main interest and rig is still QRP! See my latest homebrew "Go-Box" project shown above, consisting of a MARS-modified Yaesu FT-817nd transceiver, LDG-817H antenna tuner, and a Signalink USB sound card. The radio is powered by a 12/Amp/hr LiFePO4 battery and everything is packaged in a salvaged Textronix instrument case with both a Comet HFJ-350M 160-6 Meter and VHF/UHF whip antennas mounted on the equipment case. Included is a special mount for a Baofeng UV5RX3 tri-band (146, 222 and 440 mHz) HT with a military handset, battery eliminator and tri-band antenna. There is also a 24-hour analog clock, a clip-on work light, a Palm mini-keyer paddle and a LDG 4:1 balun which allows for a variety of external antenna options. This versatile, self-contained, all-mode, MF, HF, VHF and UHF station may be operated as a hand-carried pedestrian or vehicular mobile or set up as a portable base station. It is capable of operation on 14 U.S. ham bands or on any MARS or other authorized frequencies between 1.8 and 520 mHz using CW, AM, FM, SSB or on many sound-card digital keyboard modes when cabled to the USB port of an external lap top computer with appropriate software. This design project has won first place awards at various hamfests in North Carolina and Virginia. Besides showing off the rig and demonstrating what can be done with low-powered amateur radio equipment, I enjoy mountain top operating along the Blue Ridge Parkway, casual contesting, DXing and short-wave listening. I am always amazed how much fun can be had with this 18-pound "do everything" QRP rig that requires only about one cubic foot of space and will work local and worldwide distances with a variety of power supply options and antennas from practically anywhere! The top photo shows me operating a new "military look" version of the "Go-Box" on 222 mHz FM-voice during the January 2020 annual Winter Field Day contest. Lately, I have discovered the Reverse Beacon Network and enjoy receiving reports for my QRP CW testing with the short whip antennas on all bands. 73! DE WA4A
Source Activity Date time
RBN DX de K5KHK-#: 14035.00 WA4A CW 24 dB 25 WPM CQ 1448Z 2026-09-03 14:48:53
RBN DX de K3GMQ-#: 14054.00 WA4A CW 13 dB 22 WPM CQ 1446Z 2026-09-03 14:46:49
RBN DX de K5KHK-#: 14054.00 WA4A CW 15 dB 30 WPM CQ 1446Z 2026-09-03 14:46:41
RBN DX de K5KHK-#: 14030.00 WA4A CW 22 dB 30 WPM CQ 1442Z 2026-09-03 14:42:38
RBN DX de K5KHK-#: 14037.00 WA4A CW 16 dB 31 WPM CQ 1435Z 2026-09-03 14:35:53
RBN DX de NG7M-#: 18078.00 WA4A CW 12 dB 22 WPM CQ 1419Z 2026-09-03 14:19:29
RBN DX de KG6NFJ-#: 18083.00 WA4A CW 3 dB 22 WPM CQ 1618Z 2026-09-01 16:18:54
RBN DX de AC0C-1-#: 18083.00 WA4A CW 9 dB 22 WPM CQ 1617Z 2026-09-01 16:17:03
RBN DX de K5KHK-#: 14035.00 WA4A CW 10 dB 33 WPM CQ 1719Z 2026-08-31 17:19:04
RBN DX de AC0C-1-#: 14052.00 WA4A CW 9 dB 24 WPM CQ 1536Z 2026-08-30 15:36:48
RBN DX de KD7EFG-#: 14030.00 WA4A CW 23 dB 25 WPM CQ 2035Z 2026-08-29 20:35:17
RBN DX de K5TR-#: 18077.00 WA4A CW 3 dB 26 WPM CQ 2001Z 2026-08-29 20:01:30
RBN DX de K5KHK-#: 14056.00 WA4A CW 17 dB 39 WPM CQ 1759Z 2026-08-29 17:59:17
RBN DX de K5KHK-#: 14027.00 WA4A CW 8 dB 36 WPM CQ 1758Z 2026-08-29 17:58:16
RBN DX de K5KHK-#: 14038.00 WA4A CW 8 dB 40 WPM CQ 1755Z 2026-08-29 17:55:33
RBN DX de NG7M-#: 18075.00 WA4A CW 6 dB 25 WPM CQ 2316Z 2026-08-28 23:16:34
RBN DX de K5TR-#: 18080.00 WA4A CW 8 dB 25 WPM CQ 1513Z 2026-08-28 15:13:58
RBN DX de K5KHK-#: 14045.30 WA4A CW 20 dB 36 WPM CQ 2131Z 2026-08-27 21:31:50
RBN DX de K5KHK-#: 14054.00 WA4A CW 19 dB 36 WPM CQ 2130Z 2026-08-27 21:30:49
RBN DX de K5KHK-#: 14054.40 WA4A CW 11 dB 36 WPM CQ 2129Z 2026-08-27 21:29:37
RBN DX de K5KHK-#: 14033.00 WA4A CW 20 dB 31 WPM CQ 2126Z 2026-08-27 21:26:15
RBN DX de K5KHK-#: 14030.00 WA4A CW 14 dB 38 WPM CQ 1824Z 2026-08-27 18:24:24
RBN DX de K5TR-#: 18082.00 WA4A CW 11 dB 25 WPM CQ 1754Z 2026-08-27 17:54:58
RBN DX de DL1HWS-#: 18080.00 WA4A CW 23 dB 26 WPM CQ 1754Z 2026-08-27 17:54:08
RBN DX de K5KHK-#: 14033.00 WA4A CW 17 dB 38 WPM CQ 1749Z 2026-08-27 17:49:52
RBN DX de NG7M-#: 14031.00 WA4A CW 14 dB 24 WPM CQ 2345Z 2026-08-24 23:45:54
RBN DX de NG7M-#: 14033.00 WA4A CW 10 dB 24 WPM CQ 2344Z 2026-08-24 23:44:41
RBN DX de K5KHK-#: 14033.00 WA4A CW 10 dB 33 WPM CQ 1704Z 2026-08-24 17:04:54
RBN DX de K5KHK-#: 14026.00 WA4A CW 15 dB 34 WPM CQ 1700Z 2026-08-24 17:00:00
RBN DX de K5KHK-#: 14032.00 WA4A CW 18 dB 33 WPM CQ 1657Z 2026-08-24 16:57:58
RBN DX de K5KHK-#: 14056.00 WA4A CW 8 dB 36 WPM CQ 1655Z 2026-08-24 16:55:56
RBN DX de NG7M-#: 21034.00 WA4A CW 10 dB 24 WPM CQ 1646Z 2026-08-23 16:46:59
RBN DX de K5KHK-#: 14035.90 WA4A CW 17 dB 26 WPM CQ 1744Z 2026-08-22 17:44:22
RBN DX de K5KHK-#: 14060.00 WA4A CW 16 dB 33 WPM CQ 1742Z 2026-08-22 17:42:29
RBN DX de K5KHK-#: 14056.70 WA4A CW 14 dB 36 WPM CQ 1741Z 2026-08-22 17:41:48
RBN DX de K5KHK-#: 14055.20 WA4A CW 22 dB 34 WPM CQ 1741Z 2026-08-22 17:41:27
RBN DX de K5KHK-#: 14038.90 WA4A CW 23 dB 31 WPM CQ 2327Z 2026-08-20 23:27:50
RBN DX de K5KHK-#: 14053.00 WA4A CW 24 dB 32 WPM CQ 2322Z 2026-08-20 23:22:24
RBN DX de K5KHK-#: 14039.20 WA4A CW 21 dB 36 WPM CQ 2320Z 2026-08-20 23:20:22
RBN DX de DM5GG-#: 18075.00 WA4A CW 4 dB 23 WPM CQ 2041Z 2026-08-20 20:41:59
RBN DX de K5KHK-#: 18075.00 WA4A CW 10 dB 35 WPM CQ 2034Z 2026-08-20 20:34:47
RBN DX de DM5GG-#: 18080.50 WA4A CW 10 dB 23 WPM CQ 2030Z 2026-08-20 20:30:49
RBN DX de KW7MM-#: 18080.90 WA4A CW 15 dB 24 WPM CQ 2007Z 2026-08-18 20:07:25
RBN DX de TI7W-#: 14039.00 WA4A CW 8 dB 24 WPM CQ 1820Z 2026-08-18 18:20:44
RBN DX de N2EPE-#: 14033.00 WA4A CW 16 dB 24 WPM CQ 1815Z 2026-08-18 18:15:23
RBN DX de W8WWV-#: 14032.90 WA4A CW 13 dB 24 WPM CQ 1809Z 2026-08-18 18:09:16
RBN DX de TI7W-#: 14035.00 WA4A CW 15 dB 23 WPM CQ 1801Z 2026-08-18 18:01:27
RBN DX de K5TR-#: 14032.00 WA4A CW 17 dB 24 WPM CQ 1713Z 2026-08-18 17:13:35
RBN DX de K3PA-1-#: 14043.00 WA4A CW 18 dB 24 WPM CQ 2326Z 2026-08-17 23:26:12
RBN DX de ZF1A-#: 14035.90 WA4A CW 13 dB 24 WPM CQ 2324Z 2026-08-17 23:24:33
RBN DX de ZF1A-#: 14035.90 WA4A CW 13 dB 24 WPM CQ 2324Z 2026-08-17 23:24:33
RBN DX de WT8P-#: 14052.00 WA4A CW 6 dB 24 WPM CQ 2322Z 2026-08-17 23:22:59
RBN DX de N4HAC-#: 14053.40 WA4A CW 20 dB 23 WPM CQ 1936Z 2026-08-17 19:36:38
RBN DX de N2CR-#: 14027.00 WA4A CW 6 dB 25 WPM CQ 1905Z 2026-08-17 19:05:01
RBN DX de KW7MM-#: 18084.00 WA4A CW 18 dB 25 WPM CQ 1710Z 2026-08-17 17:10:08
RBN DX de NG7M-#: 18082.00 WA4A CW 4 dB 25 WPM CQ 1927Z 2026-08-16 19:27:43
RBN DX de N2YCH-#: 18080.00 WA4A CW 3 dB 25 WPM CQ 1746Z 2026-08-16 17:46:47
RBN DX de KW7MM-#: 14035.00 WA4A CW 6 dB 24 WPM CQ 1513Z 2026-08-16 15:13:47
RBN DX de TI7W-#: 14030.00 WA4A CW 11 dB 25 WPM CQ 1512Z 2026-08-16 15:12:48
RBN DX de W3RGA-#: 14052.80 WA4A CW 13 dB 25 WPM CQ 1947Z 2026-08-15 19:47:58
RBN DX de WB6BEE-#: 7050.00 WA4A CW 19 dB 25 WPM CQ 0120Z 2026-08-13 01:20:23
RBN DX de K1RA-4-#: 7050.00 WA4A CW 14 dB 25 WPM CQ 0120Z 2026-08-13 01:20:22
RBN DX de W1NT-6-#: 7051.00 WA4A CW 12 dB 25 WPM CQ 0113Z 2026-08-13 01:13:38
RBN DX de N8DXE-#: 7028.80 WA4A CW 14 dB 25 WPM CQ 0112Z 2026-08-13 01:12:14
RBN DX de TI7W-#: 18081.00 WA4A CW 8 dB 25 WPM CQ 1901Z 2026-08-11 19:01:29
RBN DX de KD7EFG-#: 18081.00 WA4A CW 29 dB 24 WPM CQ 1857Z 2026-08-11 18:57:47
RBN DX de ES2RR-#: 50011.80 WA4A CW 0 dB 10 WPM DX 2215Z 2026-08-09 22:15:17
RBN DX de KW7MM-4-#: 18080.30 WA4A CW 8 dB 25 WPM CQ 1627Z 2026-08-09 16:27:48
RBN DX de WC2L-#: 14033.00 WA4A CW 11 dB 25 WPM CQ 1646Z 2026-08-08 16:46:43
RBN DX de KW7MM-2-#: 14059.50 WA4A CW 9 dB 15 WPM CQ 0200Z 2026-07-30 02:00:24
RBN DX de K5KHK-#: 14031.00 WA4A CW 10 dB 37 WPM CQ 1816Z 2026-07-29 18:16:31
RBN DX de AA4PA-#: 14035.30 WA4A CW 7 dB 25 WPM CQ 2010Z 2026-07-27 20:10:08
RBN DX de KD7EFG-#: 21031.00 WA4A CW 29 dB 24 WPM CQ 1607Z 2026-07-26 16:07:10
RBN DX de AC0C-1-#: 14035.00 WA4A CW 7 dB 24 WPM CQ 1656Z 2026-07-24 16:56:30
RBN DX de K5KHK-#: 14037.00 WA4A CW 10 dB 34 WPM CQ 1830Z 2026-07-22 18:30:04
RBN DX de K5KHK-#: 14051.00 WA4A CW 10 dB 35 WPM CQ 1822Z 2026-07-22 18:22:46
RBN DX de K5KHK-#: 14045.00 WA4A CW 12 dB 34 WPM CQ 1818Z 2026-07-22 18:18:31
RBN DX de K5KHK-#: 14034.00 WA4A CW 11 dB 35 WPM CQ 1549Z 2026-07-22 15:49:46
RBN DX de K5KHK-#: 14030.30 WA4A CW 19 dB 34 WPM CQ 1817Z 2026-07-20 18:17:54
RBN DX de K5KHK-#: 14034.00 WA4A CW 10 dB 30 WPM CQ 1426Z 2026-07-20 14:26:48
RBN DX de K5KHK-#: 14044.40 WA4A CW 14 dB 35 WPM CQ 1423Z 2026-07-20 14:23:25
RBN DX de N4HAC-#: 18075.00 WA4A CW 8 dB 24 WPM CQ 1410Z 2026-07-20 14:10:14
RBN DX de WB6BEE-#: 18075.00 WA4A CW 10 dB 23 WPM CQ 1410Z 2026-07-20 14:10:13
DXC DX de WB4KTF: 50140.0 WA4A HE IS QRP 5W 53 IN N MI 2000Z 2026-07-19 20:00:00
RBN DX de K5KHK-#: 14038.00 WA4A CW 20 dB 35 WPM CQ 1936Z 2026-07-19 19:36:01
RBN DX de N4HAC-#: 14027.00 WA4A CW 15 dB 24 WPM CQ 1934Z 2026-07-19 19:34:56
RBN DX de W1NT-6-#: 14027.00 WA4A CW 10 dB 24 WPM CQ 1934Z 2026-07-19 19:34:35
RBN DX de K5KHK-#: 14027.00 WA4A CW 13 dB 33 WPM CQ 1934Z 2026-07-19 19:34:09
RBN DX de K5KHK-#: 14044.00 WA4A CW 24 dB 27 WPM CQ 1932Z 2026-07-19 19:32:57
RBN DX de K3GMQ-#: 14058.00 WA4A CW 6 dB 24 WPM CQ 0131Z 2026-07-18 01:31:10
RBN DX de W1NT-2-#: 14060.00 WA4A CW 15 dB 24 WPM CQ 0129Z 2026-07-18 01:29:53
RBN DX de WE9V-#: 14041.00 WA4A CW 17 dB 24 WPM CQ 0123Z 2026-07-18 01:23:01
RBN DX de K5KHK-#: 14032.00 WA4A CW 11 dB 34 WPM CQ 2125Z 2026-07-17 21:25:34
RBN DX de K5KHK-#: 14030.00 WA4A CW 16 dB 34 WPM CQ 2123Z 2026-07-17 21:23:12
RBN DX de K5KHK-#: 14043.00 WA4A CW 17 dB 32 WPM CQ 2120Z 2026-07-17 21:20:09
RBN DX de K5KHK-#: 14032.00 WA4A CW 9 dB 35 WPM CQ 2114Z 2026-07-17 21:14:44
RBN DX de K3GMQ-#: 14049.00 WA4A CW 9 dB 23 WPM CQ 1546Z 2026-07-16 15:46:19
RBN DX de KW7MM-2-#: 14059.00 WA4A CW 12 dB 23 WPM CQ 1545Z 2026-07-16 15:45:43
RBN DX de K5KHK-#: 14059.00 WA4A CW 18 dB 27 WPM CQ 1545Z 2026-07-16 15:45:24
RBN DX de K5KHK-#: 14030.20 WA4A CW 16 dB 32 WPM CQ 1543Z 2026-07-16 15:43:53
RBN DX de K5KHK-#: 14038.00 WA4A CW 18 dB 34 WPM CQ 0032Z 2026-07-16 00:32:49
RBN DX de KW7MM-#: 14036.00 WA4A CW 18 dB 23 WPM CQ 2112Z 2026-07-15 21:12:11
RBN DX de AC0C-1-#: 14050.00 WA4A CW 14 dB 23 WPM CQ 1539Z 2026-07-15 15:39:02
RBN DX de WA7LNW-#: 14035.00 WA4A CW 8 dB 24 WPM CQ 1537Z 2026-07-15 15:37:51
RBN DX de K5TR-#: 21037.00 WA4A CW 21 dB 24 WPM CQ 1458Z 2026-07-15 14:58:34
RBN DX de K3PA-1-#: 21030.00 WA4A CW 7 dB 24 WPM CQ 1919Z 2026-07-14 19:19:09
RBN DX de KM3T-3-#: 14063.90 WA4A CW 2 dB 23 WPM CQ 1753Z 2026-07-12 17:53:17
RBN DX de W1NT-2-#: 14064.90 WA4A CW 8 dB 20 WPM CQ 1538Z 2026-07-12 15:38:21
RBN DX de AC0C-1-#: 21031.00 WA4A CW 14 dB 25 WPM CQ 1924Z 2026-07-08 19:24:46
RBN DX de VE6AO-#: 21050.00 WA4A CW 8 dB 24 WPM CQ 1720Z 2026-07-07 17:20:05
RBN DX de VE6AO-#: 21036.90 WA4A CW 8 dB 25 WPM CQ 1353Z 2026-07-07 13:53:08
RBN DX de VE6JY-#: 21050.00 WA4A CW 9 dB 24 WPM CQ 1344Z 2026-07-07 13:44:47
RBN DX de IT9GSF-#: 14035.00 WA4A CW 11 dB 24 WPM CQ 2309Z 2026-07-06 23:09:34
RBN DX de W8WWV-#: 21039.90 WA4A CW 4 dB 24 WPM CQ 1730Z 2026-07-06 17:30:28
RBN DX de AC0C-1-#: 21035.00 WA4A CW 4 dB 24 WPM CQ 1637Z 2026-07-06 16:37:51
RBN DX de TI7W-#: 14030.00 WA4A CW 13 dB 24 WPM CQ 1621Z 2026-07-01 16:21:37
RBN DX de WA7LNW-#: 14029.90 WA4A CW 44 dB 24 WPM CQ 1620Z 2026-07-01 16:20:34
RBN DX de WE9V-#: 14030.00 WA4A CW 22 dB 24 WPM CQ 2154Z 2026-06-30 21:54:06
RBN DX de KM3T-5-#: 14035.00 WA4A CW 16 dB 24 WPM CQ 2152Z 2026-06-30 21:52:12
RBN DX de KM3T-3-#: 14035.00 WA4A CW 15 dB 25 WPM CQ 2152Z 2026-06-30 21:52:10
RBN DX de WT9U-#: 14032.00 WA4A CW 10 dB 25 WPM CQ 1801Z 2026-06-30 18:01:42
RBN DX de WA7LNW-#: 14025.90 WA4A CW 8 dB 24 WPM CQ 1800Z 2026-06-30 18:00:02
RBN DX de K3PA-1-#: 14052.00 WA4A CW 10 dB 24 WPM CQ 1904Z 2026-06-29 19:04:30
RBN DX de VE6WZ-#: 14044.00 WA4A CW 5 dB 24 WPM CQ 1729Z 2026-06-27 17:29:27
RBN DX de VE6WZ-3-#: 14044.00 WA4A CW 5 dB 24 WPM CQ 1729Z 2026-06-27 17:29:18
RBN DX de VE6WZ-#: 14037.00 WA4A CW 5 dB 24 WPM CQ 1727Z 2026-06-27 17:27:45
RBN DX de VE6WZ-3-#: 14037.00 WA4A CW 5 dB 24 WPM CQ 1727Z 2026-06-27 17:27:45
RBN DX de WE9V-#: 14047.00 WA4A CW 12 dB 24 WPM CQ 1713Z 2026-06-26 17:13:13
RBN DX de WZ7I-#: 14026.00 WA4A CW 6 dB 24 WPM CQ 1659Z 2026-06-26 16:59:17
RBN DX de W8WWV-#: 14036.00 WA4A CW 24 dB 24 WPM CQ 2159Z 2026-06-24 21:59:38
RBN DX de WW1L-#: 50125.00 WA4A CW 4 dB 24 WPM CQ 1616Z 2026-06-24 16:16:59
RBN DX de WW1L-#: 50125.00 WA4A CW 11 dB 24 WPM DX 1553Z 2026-06-24 15:53:50
RBN DX de WZ7I-#: 14050.00 WA4A CW 24 dB 24 WPM CQ 1359Z 2026-06-24 13:59:50
RBN DX de ZL4YL-#: 14060.00 WA4A CW 7 dB 24 WPM CQ 1356Z 2026-06-24 13:56:08
RBN DX de K9LC-#: 18081.90 WA4A CW 10 dB 23 WPM CQ 1349Z 2026-06-24 13:49:54
RBN DX de KM3T-3-#: 18080.50 WA4A CW 16 dB 24 WPM CQ 1342Z 2026-06-24 13:42:01
RBN DX de KM3T-5-#: 18080.50 WA4A CW 16 dB 25 WPM CQ 1341Z 2026-06-24 13:41:58
RBN DX de W6YX-#: 18082.00 WA4A CW 5 dB 24 WPM CQ 1530Z 2026-06-23 15:30:15
RBN DX de K5TR-#: 14056.00 WA4A CW 34 dB 25 WPM CQ 0059Z 2026-06-23 00:59:09
RBN DX de DL1HWS-3-#: 14043.00 WA4A CW 8 dB 24 WPM CQ 0050Z 2026-06-23 00:50:15
RBN DX de N7VVX-#: 14050.00 WA4A CW 5 dB 25 WPM CQ 0042Z 2026-06-23 00:42:00
RBN DX de SE5E-#: 14050.00 WA4A CW 14 dB 24 WPM CQ 0041Z 2026-06-23 00:41:49
RBN DX de DP5G-#: 14030.00 WA4A CW 11 dB 24 WPM CQ 0036Z 2026-06-23 00:36:58
RBN DX de ES5PC-#: 14030.00 WA4A CW 7 dB 25 WPM CQ 0036Z 2026-06-23 00:36:49
RBN DX de NG7M-#: 18078.00 WA4A CW 9 dB 21 WPM CQ 1656Z 2026-06-22 16:56:01
RBN DX de WE9V-#: 14050.00 WA4A CW 14 dB 24 WPM CQ 1509Z 2026-06-21 15:09:32
RBN DX de GM0UDL-#: 10103.40 WA4A CW 6 dB 28 WPM CQ 0142Z 2026-06-18 01:42:28
RBN DX de WE9V-#: 14032.00 WA4A CW 14 dB 25 WPM CQ 1713Z 2026-06-16 17:13:56
RBN DX de K9IMM-#: 14036.00 WA4A CW 8 dB 24 WPM CQ 1643Z 2026-06-16 16:43:53
RBN DX de VE6WZ-#: 14047.90 WA4A CW 11 dB 25 WPM CQ 2141Z 2026-06-15 21:41:32
RBN DX de VE6WZ-3-#: 14047.90 WA4A CW 11 dB 25 WPM CQ 2141Z 2026-06-15 21:41:26
RBN DX de K5TR-#: 14043.00 WA4A CW 36 dB 25 WPM CQ 2137Z 2026-06-15 21:37:37
RBN DX de WE9V-#: 10106.00 WA4A CW 6 dB 20 WPM CQ 2003Z 2026-06-13 20:03:36
RBN DX de ND7K-#: 14048.00 WA4A CW 9 dB 25 WPM CQ 1705Z 2026-06-13 17:05:57
RBN DX de W1NT-2-#: 14030.00 WA4A CW 14 dB 24 WPM CQ 1719Z 2026-06-12 17:19:10
RBN DX de KO4BHX-#: 14035.00 WA4A CW 19 dB 24 WPM CQ 1718Z 2026-06-12 17:18:37
RBN DX de N9CO-#: 14035.00 WA4A CW 16 dB 25 WPM CQ 2102Z 2026-06-06 21:02:32
RBN DX de ND7K-#: 14055.00 WA4A CW 14 dB 25 WPM CQ 2026Z 2026-06-05 20:26:15
RBN DX de W1NT-2-#: 14060.00 WA4A CW 17 dB 25 WPM CQ 2023Z 2026-06-05 20:23:34
RBN DX de NU4F-#: 14050.00 WA4A CW 24 dB 25 WPM CQ 1544Z 2026-06-04 15:44:42
RBN DX de KM3T-5-#: 14035.00 WA4A CW 11 dB 24 WPM CQ 1542Z 2026-06-04 15:42:51
RBN DX de WT9U-#: 14040.00 WA4A CW 20 dB 25 WPM CQ 0128Z 2026-06-04 01:28:23
RBN DX de PI4CC-#: 14030.00 WA4A CW 11 dB 25 WPM CQ 0123Z 2026-06-04 01:23:44
RBN DX de G4IRN-#: 14050.00 WA4A CW 18 dB 25 WPM CQ 0122Z 2026-06-04 01:22:10
RBN DX de VE6AO-#: 14050.00 WA4A CW 10 dB 25 WPM CQ 0121Z 2026-06-04 01:21:53
RBN DX de N2YCH-#: 18075.00 WA4A CW 12 dB 25 WPM CQ 2302Z 2026-06-03 23:02:51
RBN DX de F4GOU-#: 18081.00 WA4A CW 6 dB 25 WPM CQ 2301Z 2026-06-03 23:01:41
RBN DX de EA1DAV-#: 18081.00 WA4A CW 6 dB 24 WPM CQ 2301Z 2026-06-03 23:01:15
RBN DX de ND7K-#: 10116.00 WA4A CW 12 dB 25 WPM CQ 0102Z 2026-06-02 01:02:38
RBN DX de N2CR-#: 14058.00 WA4A CW 8 dB 25 WPM CQ 0053Z 2026-06-02 00:53:15
RBN DX de IT9GSF-#: 14052.00 WA4A CW 26 dB 25 WPM CQ 0051Z 2026-06-02 00:51:03
RBN DX de S53WW-#: 14049.00 WA4A CW 5 dB 24 WPM CQ 0049Z 2026-06-02 00:49:49
RBN DX de VE6JY-#: 14035.00 WA4A CW 8 dB 24 WPM CQ 1752Z 2026-06-01 17:52:35
RBN DX de N5RZ-#: 14055.10 WA4A CW 16 dB 25 WPM CQ 1634Z 2026-05-29 16:34:19
RBN DX de KW7MM-2-#: 14047.00 WA4A CW 8 dB 25 WPM CQ 1535Z 2026-05-27 15:35:31
RBN DX de WA7LNW-#: 14043.00 WA4A CW 12 dB 25 WPM CQ 1532Z 2026-05-27 15:32:40
RBN DX de W1NT-2-#: 14051.00 WA4A CW 14 dB 25 WPM CQ 1529Z 2026-05-27 15:29:31
RBN DX de KW7MM-#: 14051.00 WA4A CW 16 dB 25 WPM CQ 1529Z 2026-05-27 15:29:30
RBN DX de TI7W-#: 14050.00 WA4A CW 14 dB 24 WPM CQ 1528Z 2026-05-27 15:28:05
RBN DX de WB6BEE-#: 14055.00 WA4A CW 12 dB 24 WPM CQ 1705Z 2026-05-26 17:05:36
RBN DX de W3UA-#: 14045.00 WA4A CW 14 dB 25 WPM CQ 1703Z 2026-05-26 17:03:08
RBN DX de WE9V-#: 10120.00 WA4A CW 2 dB 25 WPM CQ 2228Z 2026-05-22 22:28:55
RBN DX de KW7MM-#: 14040.00 WA4A CW 12 dB 25 WPM CQ 2216Z 2026-05-22 22:16:16
RBN DX de WA7LNW-#: 14041.90 WA4A CW 10 dB 25 WPM CQ 0019Z 2026-05-22 00:19:47
RBN DX de KM3T-5-#: 14031.00 WA4A CW 4 dB 24 WPM CQ 0019Z 2026-05-22 00:19:05
RBN DX de K3PA-1-#: 14033.00 WA4A CW 17 dB 24 WPM CQ 0017Z 2026-05-22 00:17:17
RBN DX de KW7MM-2-#: 14026.00 WA4A CW 9 dB 25 WPM CQ 1510Z 2026-05-18 15:10:33
RBN DX de VE6WZ-3-#: 14029.90 WA4A CW 15 dB 25 WPM CQ 1505Z 2026-05-18 15:05:06
RBN DX de VE6WZ-#: 14029.90 WA4A CW 15 dB 25 WPM CQ 1505Z 2026-05-18 15:05:00
RBN DX de IT9GSF-#: 14045.00 WA4A CW 17 dB 25 WPM CQ 0052Z 2026-05-18 00:52:26
RBN DX de ZF9CW-#: 14027.00 WA4A CW 28 dB 24 WPM CQ 0051Z 2026-05-18 00:51:24
RBN DX de KW7MM-#: 14040.20 WA4A CW 12 dB 25 WPM CQ 1958Z 2026-05-17 19:58:24
RBN DX de KO4BHX-#: 18080.00 WA4A CW 26 dB 25 WPM CQ 1413Z 2026-05-17 14:13:56
RBN DX de ZF9CW-#: 14052.00 WA4A CW 20 dB 25 WPM CQ 1410Z 2026-05-17 14:10:54
RBN DX de W1NT-6-#: 14043.00 WA4A CW 7 dB 25 WPM CQ 1406Z 2026-05-17 14:06:54
RBN DX de W3RGA-#: 14055.00 WA4A CW 20 dB 25 WPM CQ 1406Z 2026-05-17 14:06:21
RBN DX de W1NT-2-#: 7046.00 WA4A CW 6 dB 25 WPM CQ 2115Z 2026-05-14 21:15:56
RBN DX de WB6BEE-#: 14026.00 WA4A CW 11 dB 25 WPM CQ 1709Z 2026-05-14 17:09:18
RBN DX de VE6AO-#: 14026.00 WA4A CW 6 dB 25 WPM CQ 0105Z 2026-05-14 01:05:01
RBN DX de W6YX-#: 14032.00 WA4A CW 17 dB 25 WPM CQ 0047Z 2026-05-14 00:47:58